Showing default

SATORO-T3, 64589

Orbit data source: Space-Track

SATORO-T3, 64589 is a payload satellite owned by Satoro (SG) in SSO that was launched on Mon, 23 Jun 2025 UTC via an FALCON 9 launch vehicle from the Air Force Western Test Range (AFWTR). Payload-class satellites include a variety of spacecraft equipped with specific instruments for various scientific and technological missions. These include communications satellites like Starlink; space stations such as the ISS; scientific satellites like the Hubble; Earth observation satellites from companies like Planet Labs, Umbra, and HawkEye 360; GPS; miniature CubeSats for education and research; and military/defense satellites.

Loading next visibility...
Identifier
64589, 2025-135BP
Orbit
SSO
Country
Flag of SGSG / SING
Related business
Manufacturer
Satoro
Mission
Operational Commercial Technology
Bus & Motor
CUBESAT 3U, Unknown motor
Mass
4 kg wet, 4 kg dry
Launch date (UTC)
2025-06-23 (10 months ago)
Launch vehicle
FALCON 9
Launch site
Air Force Western Test Range (AFWTR)
Object type
Payload
Rocket body
Debris
Shape & HBR
Box, 0.1 m
Radar Cross Section
0.035 m², Small (<0.1 m²)

Expand to show TLE details & history
Last TLE update: 4 hours ago

TLE from 4 hours ago
0 SATORO-T3
1 64589U 25135BP  26120.21556435  .00001953  00000-0  18782-3 0  9997
2 64589  97.7659 235.2539 0006314 124.5265 235.6552 14.94142146 46740
Epoch: 2026-04-30T05:10Z
TLE epoch observation values (Epoch: 2026-04-30T05:10:24.759Z)
Latitude
-0.00004°
Longitude
-60.51462°
Altitude
590.564 km
Speed
7.563 km/s
True Right ascension
15h 41m 00s
True Declination
0° 00' 00"
Sunlit
Object was in full shadow at epoch
Visualization orbit readout
Latitude
Unknown
Longitude
Unknown
Altitude
Unknown
Speed
Unknown
Apparent Right ascension
Unknown
Apparent Declination
Unknown
Sunlit
N/A
Visualization observer readout
Local Sidereal Time
16:37:48
Azimuth
Unknown
Elevation
Unknown
Doppler factor
Unknown
Orbital elements
Apogee altitude
586.447 km
Perigee altitude
577.658 km
Semi-major axis
6,960.19 km
Eccentricity
0.00063
Inclination
97.7659°
RAAN
235.2539°
Arg. of periapsis
124.5265°
True anomaly
235.59549°
Mean anomaly
235.6552°
Eccentric anomaly
235.62534°
Mean motion
3.73776 °/min
Orbital period
96.31 mins
BSTAR
0.00018782
Loading maneuver chart data...
Computing Atmospheric mass density...
Loading historical data...
Loading historical data...
Loading historical data...
Loading historical data...
Loading historical data...
Loading historical data...
Loading historical data...

Documentation

Showing up to 5 results
|